Regional Weather Roundup
Issued by NWS

Home | Current Version | Previous Version | Graphics & Text | Print | Product List | Glossary On
Versions: 1 2 3 4 5 6 7 8 9 10 11 12 13 14 15 16 17 18 19 20 21 22 23 24 25 26 27 28 29 30 31 32 33 34 35 36 37 38 39 40 41 42 43 44 45 46 47 48 49 50
000
ASUS45 KTFX 301910
RWRMT
MONTANA REGIONAL WEATHER ROUNDUP
NATIONAL WEATHER SERVICE GREAT FALLS MT
100 PM MDT SAT JUL 30 2016

NOTE: "FAIR" INDICATES FEW OR NO CLOUDS BELOW 12000 FEET WITH NO
SIGNIFICANT WEATHER AND/OR OBSTRUCTIONS TO VISIBILITY.

MTZ001>007-043-302000-
WEST OF THE DIVIDE

CITY           SKY/WX    TMP DP  RH WIND       PRES   REMARKS
MISSOULA       MOSUNNY   87  48  25 VRB6      29.81F
BUTTE          SUNNY     84  33  16 W13       29.97F
MULLAN PASS    SUNNY     69  43  38 VRB6      30.01S
DEER LODGE       N/A     82  41  23 NE5       29.92F
EUREKA           N/A     88  48  25 SE6       29.72F
HAMILTON         N/A     90  43  19 CALM      29.83F
LIBBY            N/A     90  45  20 NW7G16    29.74F
PLAINS           N/A     90  48  23 W12       29.78F
RONAN            N/A     89  49  25 SE6       29.85F
$$

MTZ008-052>055-302000-
SOUTHWEST MONTANA

CITY           SKY/WX    TMP DP  RH WIND       PRES   REMARKS
BOZEMAN        SUNNY     86  44  23 VRB5      29.91F
DILLON         MOSUNNY   86  47  25 S10G17    29.93F
W YELLOWSTONE  SUNNY     81  36  19 SW16G24   30.09S
ENNIS          SUNNY     86  37  17 VRB5G16   30.01F
$$

MTZ009-010-012-014-046-048-049-054-302000-
EAST SLOPES AND CENTRAL MONTANA

CITY           SKY/WX    TMP DP  RH WIND       PRES   REMARKS
CUT BANK         N/A     82  49  31 VRB5      29.80F
GREAT FALLS    MOSUNNY   88  40  18 S6G17     29.79F
MALMSTROM AFB  SUNNY     89  42  19 W9G20     29.78F
HELENA         SUNNY     90  43  19 VRB3      29.82F
CHOTEAU          N/A     88  50  27 N10G16    29.82F
CONRAD           N/A     86  55  34 NW6       29.84F
$$

MTZ011-013-016-021-045-047-050-051-302000-
NORTH CENTRAL MONTANA

CITY           SKY/WX    TMP DP  RH WIND       PRES   REMARKS
HAVRE          SUNNY     90  53  28 W7G21     29.73F
N BAR RANCH    PTSUNNY   84  50  30 S18G26    29.88S
CHINOOK          N/A     90  55  31 SE6       29.71F
$$

MTZ017>020-022>027-061-062-302000-
NORTHEAST MONTANA

CITY           SKY/WX    TMP DP  RH WIND       PRES   REMARKS
GLASGOW        SUNNY     86  55  34 SE16      29.78F
JORDAN           N/A     89  53  29 SE12G17   29.79F
SIDNEY         SUNNY     86  50  28 VRB3      29.83F
WOLF POINT     SUNNY     87  52  29 SE10      29.81F
PLENTYWOOD       N/A     82  50  32 S8        29.84F
POPLAR           N/A     84  48  28 E7        29.82F
$$

MTZ028>42-056>058-302000-
SOUTHCENTRAL AND SOUTHEAST MONTANA

CITY           SKY/WX    TMP DP  RH WIND       PRES   REMARKS
BAKER          SUNNY     86  55  34 SE14      29.87F
BILLINGS       MOSUNNY   89  50  26 CALM      29.84F
LIVINGSTON     SUNNY     91  44  19 NW7G22    29.89F
MILES CITY     SUNNY     91  50  24 E9        29.81F
EKALAKA          N/A     87  53  31 E7        29.88F
FORSYTH          N/A     91  48  22 E8        29.79F
LAUREL           N/A     86  52  30 NE1       29.85F
$$

REGIONAL REPORTS...DAKOTAS

CITY           SKY/WX    TMP DP  RH WIND       PRES   REMARKS
WILLISTON      SUNNY     86  51  29 S8        29.84F
MINOT          MOSUNNY   85  60  42 E9        29.85F
DICKINSON      SUNNY     82  53  36 W5        29.86F
BEACH            N/A     82  50  32 S5        29.89F
CROSBY           N/A     81  55  41 E7        29.87S
WATFORD CITY     N/A     84  50  30 E5        29.85F
BISMARCK       SUNNY     81  67  62 S13       29.87F
GRAND FORKS    PTSUNNY   81  62  52 S16       29.92F
FARGO          MOSUNNY   80  60  50 S13G20    29.95F
BUFFALO SD       N/A     89  54  30 SE12G22   29.82F
RAPID CITY     SUNNY     89  58  34 S16       29.89F
$$

REGIONAL REPORTS...WYOMING/IDAHO/WASHINGTON

CITY           SKY/WX    TMP DP  RH WIND       PRES   REMARKS
GILLETTE       SUNNY     90  44  20 VRB7      29.91F
SHERIDAN       SUNNY     94  45  18 VRB6      29.84F HX  90
BUFFALO WY     SUNNY     91  46  21 SE15      29.92F
CODY           SUNNY     84  48  28 NE6       29.92F
YELLOWSTONE LA   N/A     76  30  18 NW8G21    30.18F
IDAHO FALLS    PTSUNNY   85  44  23 SW16G23   29.99R
SALMON         SUNNY     84  45  24 NW3       29.85F
BOISE          SUNNY     92  44  19 NW9       29.85S
SPOKANE        MOSUNNY   86  43  22 SW17G26   29.78S
$$

REGIONAL REPORTS...ALBERTA

CITY           SKY/WX    TMP DP  RH WIND       PRES   REMARKS
EDMONTON       SUNNY     70  57  64 N7        29.75F
CALGARY        MOSUNNY   70  54  56 E3        29.78F
LETHBRIDGE     MOSUNNY   77  55  47 VRB8      29.76F
MEDICINE HAT   MOSUNNY   88  55  33 VRB3      29.73F
WATERTON GATE    N/A     79  54  41 SE3         N/A
CARDSTON         N/A     79  54  41 N5          N/A
MILK RIVER       N/A     79  50  36 NW3         N/A
ONEFOUR          N/A     84  46  26 W7          N/A
$$

REGIONAL REPORTS...SASKATCHEWAN

CITY           SKY/WX    TMP DP  RH WIND       PRES   REMARKS
SWIFT CURRENT  RAIN      63  59  88 N6        29.81R
REGINA         PTSUNNY   81  61  50 SW9       29.81F
SASKATOON      PTSUNNY   81  54  39 SE13      29.77S
CYPRESS HILLS    N/A     73  59  60 SE9         N/A
VAL MARIE        N/A     82  55  39 S15G22      N/A
ROCKGLEN         N/A     81  52  36 S12G17      N/A
$$



USA.gov is the U.S. government's official web portal to all federal, state and local government web resources and services.